This demonstration page uses our WeatherBlox Daily Observations layout. Learn more.

Left ArrowRight Arrow

Hourly Observations for April 9, 2017

Temp ( °F °C ) Dew Point ( °F °C ) Humidity (%) Winds ( mph kmh ) Pressure ( in mb ) Visibility ( mi km ) Precip ( " mm )
12:15 am 00:15 Clear 52 11 45 7 77 77 Calm 29.47 998 10 16 0.00 0.00
12:35 am 00:35 Clear 52 11 45 7 77 77 Calm 29.47 998 10 16 0.00 0.00
12:55 am 00:55 Clear 52 11 45 7 77 77 Calm 29.47 998 10 16 0.00 0.00
1:15 am 01:15 Clear 54 12 46 8 77 77 NNW 5 7 29.47 998 10 16 0.00 0.00
1:35 am 01:35 Clear 52 11 45 7 77 77 Calm 29.47 998 10 16 0.00 0.00
1:55 am 01:55 Clear 52 11 46 8 82 82 NNE 3 6 29.47 998 10 16 0.00 0.00
2:15 am 02:15 Clear 52 11 45 7 77 77 NNE 3 6 29.47 998 10 16 0.00 0.00
2:35 am 02:35 Clear 48 9 45 7 87 87 NNE 3 6 29.50 999 8 13 0.00 0.00
2:55 am 02:55 Clear 48 9 45 7 87 87 NE 5 7 29.50 999 7 11 0.00 0.00
3:15 am 03:15 Clear 46 8 43 6 87 87 NE 3 6 29.50 999 5 8 0.00 0.00
3:35 am 03:35 Clear 50 10 46 8 88 88 Calm 29.50 999 8 13 0.00 0.00
3:55 am 03:55 Clear 46 8 43 6 87 87 Calm 29.47 998 5 8 0.00 0.00
4:15 am 04:15 Clear 46 8 43 6 87 87 Calm 29.47 998 7 11 0.00 0.00
4:35 am 04:35 Clear 48 9 45 7 87 87 N 10 17 29.47 998 9 14 0.00 0.00
4:55 am 04:55 Clear 50 10 46 8 88 88 NNW 6 9 29.47 998 10 16 0.00 0.00
5:15 am 05:15 Clear 50 10 45 7 82 82 N 6 9 29.47 998 10 16 0.00 0.00
5:35 am 05:35 Clear 48 9 45 7 87 87 WNW 5 7 29.47 998 10 16 0.00 0.00
5:55 am 05:55 Clear 48 9 45 7 87 87 NW 3 6 29.47 998 9 14 0.00 0.00
6:15 am 06:15 Clear 48 9 45 7 87 87 Calm 29.47 998 9 14 0.00 0.00
6:35 am 06:35 Clear 45 7 43 6 93 93 Calm 29.53 1000 8 13 0.00 0.00
6:55 am 06:55 Clear 45 7 41 5 87 87 NW 7 11 29.53 1000 5 8 0.00 0.00
7:15 am 07:15 Sunny 46 8 43 6 87 87 NNW 7 11 29.50 999 3 5 0.00 0.00
7:35 am 07:35 Sunny 46 8 43 6 87 87 NNW 8 13 29.50 999 3 5 0.00 0.00
7:55 am 07:55 Partly Cloudy 46 8 45 7 93 93 NNW 8 13 29.50 999 4 6 0.00 0.00
8:15 am 08:15 Cloudy 48 9 46 8 94 94 N 10 17 29.50 999 5 8 0.00 0.00
8:35 am 08:35 Cloudy 52 11 48 9 88 88 NNE 13 20 29.47 998 5 8 0.00 0.00
8:55 am 08:55 Cloudy 54 12 48 9 82 82 N 13 20 29.47 998 5 8 0.00 0.00
9:15 am 09:15 Cloudy 54 12 50 10 88 88 N 9 15 29.47 998 4 6 0.00 0.00
9:35 am 09:35 Cloudy 54 12 50 10 88 88 N 9 15 29.47 998 5 8 0.00 0.00
9:55 am 09:55 Cloudy 55 13 50 10 82 82 NNW 9 15 29.47 998 7 11 0.00 0.00
10:15 am 10:15 Cloudy 55 13 48 9 77 77 NNW 12 19 29.47 998 10 16 0.00 0.00
10:35 am 10:35 Cloudy 55 13 48 9 77 77 NW 10 17 29.50 999 10 16 0.00 0.00
10:55 am 10:55 Cloudy 57 14 48 9 72 72 NNW 12 19 29.50 999 10 16 0.00 0.00
11:15 am 11:15 Cloudy 57 14 48 9 72 72 NNW 14 22 29.50 999 10 16 0.00 0.00
11:35 am 11:35 Cloudy 59 15 50 10 72 72 N 16 26 29.47 998 10 16 0.00 0.00
11:55 am 11:55 Cloudy 61 16 52 11 72 72 NNW 13 20 29.50 999 10 16 0.00 0.00
12:15 pm 12:15 Cloudy 63 17 52 11 68 68 NNW 13 20 29.47 998 8 13 0.00 0.00
12:35 pm 12:35 Mostly Cloudy 64 18 52 11 64 64 NNW 13 20 29.47 998 10 16 0.00 0.00
12:55 pm 12:55 Mostly Cloudy 66 19 54 12 64 64 NNW 16 26 29.44 997 10 16 0.00 0.00
1:15 pm 13:15 Cloudy 66 19 52 11 60 60 N 18 30 29.44 997 10 16 0.00 0.00
1:35 pm 13:35 Cloudy 66 19 52 11 60 60 NNW 15 24 29.44 997 10 16 0.00 0.00
1:55 pm 13:55 Mostly Cloudy 66 19 52 11 60 60 NNW 15 24 29.44 997 10 16 0.00 0.00
2:15 pm 14:15 Mostly Sunny 66 19 50 10 56 56 N 13 20 29.44 997 10 16 0.00 0.00
2:35 pm 14:35 Sunny 68 20 52 11 56 56 NNW 14 22 29.44 997 10 16 0.00 0.00
2:55 pm 14:55 Sunny 70 21 52 11 53 53 NNW 12 19 29.44 997 10 16 0.00 0.00
3:15 pm 15:15 Sunny 72 22 52 11 50 50 N 13 20 29.44 997 10 16 0.00 0.00
3:35 pm 15:35 Sunny 72 22 52 11 50 50 N 7 11 29.44 997 10 16 0.00 0.00
3:55 pm 15:55 Mostly Sunny 72 22 50 10 47 47 NNE 13 20 29.44 997 10 16 0.00 0.00
4:15 pm 16:15 Mostly Sunny 72 22 48 9 44 44 NNE 14 22 29.44 997 10 16 0.00 0.00
4:35 pm 16:35 Mostly Sunny 72 22 50 10 47 47 N 9 15 29.44 997 10 16 0.00 0.00
4:55 pm 16:55 Sunny 72 22 46 8 41 41 NNE 14 22 29.47 998 10 16 0.00 0.00
5:15 pm 17:15 Sunny 72 22 48 9 44 44 NNE 12 19 29.47 998 10 16 0.00 0.00
5:35 pm 17:35 Mostly Sunny 72 22 46 8 41 41 N 14 22 29.47 998 10 16 0.00 0.00
5:55 pm 17:55 Partly Cloudy 66 19 46 8 49 49 NNE 9 15 29.53 1000 10 16 0.00 0.00
6:15 pm 18:15 Partly Cloudy with Thunderstorms 66 19 45 7 46 46 N 15 24 29.53 1000 10 16 0.00 0.00
6:35 pm 18:35 Mostly Cloudy with Thunderstorms 63 17 46 8 56 56 NW 23 37 29.59 1002 5 8 0.01 0.25
6:55 pm 18:55 Cloudy 54 12 45 7 72 72 NW 31 50 29.65 1004 10 16 0.01 0.25
7:15 pm 19:15 Partly Cloudy 54 12 45 7 72 72 NNW 24 39 29.68 1005 10 16 0.00 0.00
7:35 pm 19:35 Mostly Sunny 54 12 46 8 77 77 NW 21 33 29.68 1005 10 16 0.00 0.00
7:55 pm 19:55 Mostly Cloudy 54 12 45 7 72 72 NNW 23 37 29.68 1005 10 16 0.00 0.00
8:15 pm 20:15 Mostly Cloudy 52 11 45 7 77 77 NNW 17 28 29.71 1006 10 16 0.00 0.00
8:35 pm 20:35 Mostly Cloudy 52 11 43 6 72 72 NNW 18 30 29.74 1007 10 16 0.00 0.00
8:55 pm 20:55 Mostly Clear 50 10 43 6 76 76 N 14 22 29.74 1007 10 16 0.00 0.00
9:15 pm 21:15 Clear 50 10 43 6 76 76 N 14 22 29.74 1007 10 16 0.00 0.00
9:35 pm 21:35 Clear 48 9 43 6 82 82 NW 7 11 29.77 1008 10 16 0.00 0.00
9:55 pm 21:55 Clear 48 9 43 6 82 82 NNW 7 11 29.80 1009 10 16 0.00 0.00
10:15 pm 22:15 Clear 48 9 41 5 76 76 NW 5 7 29.80 1009 10 16 0.00 0.00
10:35 pm 22:35 Clear 48 9 43 6 82 82 NW 6 9 29.80 1009 10 16 0.00 0.00
10:55 pm 22:55 Clear 46 8 41 5 82 82 NW 7 11 29.83 1010 10 16 0.00 0.00
11:15 pm 23:15 Clear 46 8 41 5 82 82 WNW 8 13 29.80 1009 10 16 0.00 0.00
11:35 pm 23:35 Clear 45 7 41 5 87 87 W 9 15 29.83 1010 10 16 0.00 0.00
11:55 pm 23:55 Clear 46 8 39 4 76 76 W 7 11 29.83 1010 10 16 0.00 0.00

Powered by AerisWeather